| time (UTC) | temp C | wind direction | speed KPH | gust KPH | rain 1hr cm | rain 24hr cm | rain mn cm | humidity % | barometer mb |
| 20260504175516 | 12 | 158 | 3.2 | 9.7 | 0.00 | 0.03 | 0.03 | 73 | 1006.4 |
| 20260504174515 | 11 | 0.0 | 0.0 | 0.00 | 0.03 | 0.03 | 89 | 1006.7 | |
| 20260504173535 | 10 | 0.0 | 1.6 | 0.03 | 0.03 | 0.03 | 91 | 1006.9 | |
| 20260504172515 | 10 | 0.0 | 0.0 | 0.03 | 0.03 | 0.03 | 91 | 1007.0 | |
| 20260504171515 | 10 | 0.0 | 0.0 | 0.03 | 0.03 | 0.03 | 91 | 1007.0 | |
| 20260504170515 | 10 | 0.0 | 3.2 | 0.03 | 0.03 | 0.03 | 90 | 1007.1 | |
| 20260504150517 | 13 | 248 | 3.2 | 6.4 | 0.00 | 0.00 | 0.00 | 60 | 1006.5 |
| 20260504140516 | 13 | 225 | 6.4 | 16.1 | 0.00 | 0.00 | 0.00 | 61 | 1006.6 |
| 20260504130516 | 11 | 225 | 3.2 | 12.9 | 0.00 | 0.00 | 0.00 | 70 | 1007.0 |
| 20260504110537 | 6 | 0.0 | 1.6 | 0.00 | 0.03 | 0.00 | 86 | 1008.1 | |
| 20260504100517 | 3 | 0.0 | 0.0 | 0.00 | 0.03 | 0.00 | 88 | 1008.2 | |
| 20260504081516 | 3 | 225 | 3.2 | 4.8 | 0.00 | 0.08 | 0.00 | 86 | 1008.3 |
| 20260504080536 | 3 | 225 | 1.6 | 3.2 | 0.00 | 0.08 | 0.00 | 84 | 1008.2 |
| 20260504050515 | 0 | 0.0 | 0.0 | 0.00 | 0.08 | 0.00 | 92 | 1008.3 | |
| 20260504045515 | 0 | 0.0 | 0.0 | 0.00 | 0.08 | 0.00 | 92 | 1008.3 | |
| 20260504044515 | 0 | 0.0 | 1.6 | 0.00 | 0.08 | 0.00 | 91 | 1008.4 | |
| 20260504043515 | 0 | 0.0 | 0.0 | 0.00 | 0.08 | 0.00 | 91 | 1008.4 | |
| 20260504042538 | 0 | 0.0 | 3.2 | 0.00 | 0.08 | 0.00 | 91 | 1008.5 | |
| 20260504041515 | 0 | 0.0 | 0.0 | 0.00 | 0.08 | 0.00 | 91 | 1008.5 | |
| 20260504040515 | 0 | 0.0 | 1.6 | 0.00 | 0.08 | 0.00 | 91 | 1008.4 | |
| 20260504035516 | 0 | 0.0 | 0.0 | 0.00 | 0.10 | 0.10 | 91 | 1008.4 | |
| 20260504034516 | 0 | 0.0 | 0.0 | 0.00 | 0.10 | 0.10 | 90 | 1008.4 | |
| 20260504033515 | 0 | 0.0 | 0.0 | 0.00 | 0.10 | 0.10 | 89 | 1008.4 | |
| 20260504032515 | 0 | 0.0 | 0.0 | 0.00 | 0.10 | 0.10 | 89 | 1008.4 | |
| 20260504031516 | 0 | 0.0 | 0.0 | 0.00 | 0.10 | 0.10 | 89 | 1008.5 | |
| 20260504030516 | 0 | 0.0 | 0.0 | 0.00 | 0.10 | 0.10 | 89 | 1008.5 | |
| 20260504025515 | 0 | 0.0 | 0.0 | 0.00 | 0.13 | 0.10 | 88 | 1008.4 | |
| 20260504024535 | 0 | 0.0 | 0.0 | 0.00 | 0.13 | 0.10 | 88 | 1008.3 | |
| 20260504023516 | 1 | 0.0 | 0.0 | 0.00 | 0.13 | 0.10 | 87 | 1008.3 | |
| 20260504022515 | 1 | 0.0 | 0.0 | 0.00 | 0.13 | 0.10 | 87 | 1008.4 | |
| 20260504021515 | 1 | 0.0 | 0.0 | 0.00 | 0.13 | 0.10 | 86 | 1008.5 | |
| 20260504020515 | 1 | 0.0 | 0.0 | 0.00 | 0.13 | 0.10 | 85 | 1008.4 | |
| 20260504015515 | 1 | 0.0 | 3.2 | 0.00 | 0.15 | 0.10 | 84 | 1008.5 | |
| 20260504014515 | 2 | 0.0 | 0.0 | 0.00 | 0.15 | 0.10 | 83 | 1008.5 | |
| 20260504013515 | 2 | 0.0 | 0.0 | 0.00 | 0.15 | 0.10 | 82 | 1008.5 | |
| 20260504012515 | 2 | 0.0 | 0.0 | 0.00 | 0.15 | 0.10 | 82 | 1008.2 | |
| 20260504011515 | 3 | 0.0 | 0.0 | 0.00 | 0.18 | 0.10 | 81 | 1008.2 | |
| 20260504010515 | 3 | 0.0 | 0.0 | 0.00 | 0.20 | 0.10 | 80 | 1008.2 | |
| 20260504005515 | 3 | 0.0 | 0.0 | 0.00 | 0.23 | 0.10 | 79 | 1008.2 | |
| 20260504004515 | 4 | 0.0 | 0.0 | 0.00 | 0.25 | 0.10 | 77 | 1008.1 | |
| 20260504003515 | 5 | 0.0 | 0.0 | 0.00 | 0.25 | 0.10 | 78 | 1008.0 | |
| 20260504002515 | 5 | 113 | 1.6 | 3.2 | 0.00 | 0.28 | 0.10 | 78 | 1007.9 |
| 20260504001515 | 5 | 0.0 | 1.6 | 0.00 | 0.30 | 0.10 | 76 | 1007.9 | |
| 20260504000535 | 6 | 0.0 | 1.6 | 0.00 | 0.33 | 0.10 | 71 | 1007.8 | |
| 20260503235538 | 6 | 0.0 | 0.0 | 0.00 | 0.33 | 0.10 | 69 | 1007.8 | |
| 20260503234515 | 6 | 0.0 | 1.6 | 0.00 | 0.33 | 0.10 | 69 | 1007.8 | |
| 20260503233515 | 7 | 90 | 1.6 | 4.8 | 0.00 | 0.33 | 0.10 | 68 | 1007.7 |
| 20260503232535 | 7 | 0.0 | 4.8 | 0.00 | 0.33 | 0.10 | 66 | 1007.6 | |
| 20260503231535 | 7 | 0.0 | 0.0 | 0.00 | 0.33 | 0.10 | 68 | 1007.7 | |
| 20260503230535 | 7 | 0.0 | 0.0 | 0.00 | 0.33 | 0.10 | 68 | 1007.8 | |
| 20260503225515 | 7 | 0.0 | 1.6 | 0.00 | 0.33 | 0.10 | 65 | 1007.8 | |
| 20260503224535 | 8 | 45 | 1.6 | 3.2 | 0.00 | 0.33 | 0.10 | 67 | 1007.7 |
| 20260503223537 | 8 | 0.0 | 1.6 | 0.00 | 0.33 | 0.10 | 65 | 1007.6 | |
| 20260503222537 | 8 | 135 | 1.6 | 4.8 | 0.00 | 0.33 | 0.10 | 65 | 1007.8 |
| 20260503221517 | 8 | 158 | 1.6 | 6.4 | 0.00 | 0.33 | 0.10 | 63 | 1007.7 |
| 20260503220516 | 7 | 315 | 1.6 | 6.4 | 0.00 | 0.33 | 0.10 | 63 | 1007.6 |
| 20260503215516 | 7 | 270 | 1.6 | 3.2 | 0.00 | 0.33 | 0.10 | 64 | 1007.4 |
| 20260503214516 | 7 | 315 | 1.6 | 12.9 | 0.00 | 0.33 | 0.10 | 67 | 1007.6 |
| 20260503213516 | 7 | 0.0 | 3.2 | 0.00 | 0.33 | 0.10 | 66 | 1007.6 | |
| 20260503212536 | 8 | 0.0 | 3.2 | 0.00 | 0.33 | 0.10 | 68 | 1007.6 | |
| 20260503211536 | 8 | 90 | 1.6 | 4.8 | 0.00 | 0.33 | 0.10 | 61 | 1007.4 |
| 20260503210516 | 8 | 0.0 | 1.6 | 0.00 | 0.33 | 0.10 | 65 | 1007.4 | |
| 20260503205516 | 8 | 68 | 1.6 | 4.8 | 0.00 | 0.33 | 0.10 | 62 | 1007.3 |
| 20260503204515 | 8 | 45 | 1.6 | 3.2 | 0.00 | 0.33 | 0.10 | 63 | 1007.4 |
| 20260503203515 | 8 | 0.0 | 3.2 | 0.00 | 0.33 | 0.10 | 63 | 1007.4 | |
| 20260503202515 | 8 | 68 | 1.6 | 3.2 | 0.00 | 0.33 | 0.10 | 62 | 1007.4 |
| 20260503201515 | 8 | 0 | 3.2 | 11.3 | 0.00 | 0.33 | 0.10 | 58 | 1007.2 |
| 20260503200535 | 8 | 23 | 1.6 | 3.2 | 0.00 | 0.33 | 0.10 | 60 | 1007.2 |
| 20260503195515 | 8 | 0 | 1.6 | 11.3 | 0.00 | 0.33 | 0.10 | 61 | 1007.3 |
| 20260503194515 | 8 | 0 | 1.6 | 4.8 | 0.00 | 0.33 | 0.10 | 62 | 1007.3 |
| 20260503193536 | 8 | 68 | 1.6 | 4.8 | 0.00 | 0.33 | 0.10 | 60 | 1007.4 |
| 20260503192515 | 8 | 68 | 3.2 | 8.0 | 0.00 | 0.36 | 0.10 | 62 | 1007.5 |
| 20260503191515 | 8 | 45 | 1.6 | 6.4 | 0.00 | 0.36 | 0.10 | 58 | 1007.4 |
| 20260503190535 | 8 | 45 | 1.6 | 6.4 | 0.00 | 0.36 | 0.10 | 60 | 1007.5 |
| 20260503185515 | 8 | 23 | 3.2 | 6.4 | 0.00 | 0.36 | 0.10 | 61 | 1007.4 |
| 20260503184515 | 9 | 23 | 3.2 | 6.4 | 0.00 | 0.36 | 0.10 | 63 | 1007.5 |
| 20260503183515 | 8 | 45 | 1.6 | 6.4 | 0.00 | 0.36 | 0.10 | 61 | 1007.5 |
| 20260503182515 | 8 | 68 | 3.2 | 11.3 | 0.00 | 0.36 | 0.10 | 65 | 1007.4 |
| 20260503181515 | 8 | 113 | 1.6 | 6.4 | 0.00 | 0.36 | 0.10 | 65 | 1007.6 |
| 20260503180516 | 8 | 270 | 1.6 | 4.8 | 0.00 | 0.36 | 0.10 | 70 | 1007.6 |
| 20260503175535 | 8 | 315 | 3.2 | 6.4 | 0.00 | 0.36 | 0.10 | 67 | 1007.6 |